Flag for U.S.A. Weather past 2 weeks in Grand Rapids, Michigan, U.S.A.

Now
68 °F

Passing clouds.


Feels Like: 68 °F
Forecast: 58 / 79 °F
Wind: 6 mph from West

Location: Kent County International Airport

Current Time: Aug 4, 2015 at 10:39:29 PM

Latest Report: Aug 4, 2015 at 9:53 PM


Visibility: 10 mi

Pressure: 29.98 "Hg

Humidity: 59%

Dew point: 53 °F

Location of Grand RapidsLocation

Historic Weather in Grand Rapids — Graph

°F

Grand Rapids temperature yesterday

Maximum temperature yesterday: 79 °F (at 1:53 PM)
Minimum temperature yesterday: 60 °F (at 6:53 AM)
Average temperature yesterday: 70 °F

Past Weeks' High & Low Weather Summary

 TemperatureHumidityPressure
High91 °F (Aug 2, 4:53 PM)100% (Aug 3, 12:53 AM)30.05 "Hg (Aug 3, 12:53 AM)
Low56 °F (Jul 22, 6:53 AM)29% (Jul 29, 4:53 PM)29.57 "Hg (Aug 2, 7:53 PM)
Average74 °F63%29.91 "Hg
* Reported Jul 20 8:53 PM — Aug 4 8:53 PM, Grand Rapids, Weather by CustomWeather, © 2015

Note: Actual official high and low records may vary slightly from our data, if they occured in-between our weather recording intervals... More about our weather records

Advertising

Grand Rapids weather history for previous 24 hours

 ConditionsComfort  
Time TempWeatherWind HumidityBarometerVisibility
8:53 PM
Tue, Aug 4
71 °FSunny.6 mph53%29.95 "Hg10 mi
7:53 PM74 °FScattered clouds.12 mph46%29.94 "Hg10 mi
6:53 PM76 °FScattered clouds.14 mph47%29.94 "Hg10 mi
5:53 PM76 °FBroken clouds.17 mph42%29.95 "Hg10 mi
4:53 PM77 °FPartly sunny.17 mph47%29.94 "Hg10 mi
3:53 PM79 °FBroken clouds.18 mph42%29.93 "Hg10 mi
2:53 PM78 °FPartly sunny.20 mph42%29.93 "Hg10 mi
1:53 PM77 °FScattered clouds.21 mph44%29.93 "Hg10 mi
12:53 PM78 °FPartly sunny.18 mph43%29.93 "Hg10 mi
11:53 AM75 °FScattered clouds.15 mph50%29.94 "Hg10 mi
10:53 AM75 °FScattered clouds.10 mph50%29.93 "Hg10 mi
9:53 AM73 °FPassing clouds.10 mph57%29.93 "Hg10 mi
8:53 AM69 °FPassing clouds.9 mph73%29.92 "Hg10 mi
7:53 AM64 °FPassing clouds.6 mph84%29.91 "Hg10 mi
6:53 AM60 °FPassing clouds.6 mph90%29.90 "Hg10 mi
5:53 AM61 °FPassing clouds.3 mph83%29.88 "Hg10 mi
4:53 AM62 °FClear.6 mph78%29.88 "Hg10 mi
3:53 AM64 °FMostly cloudy.7 mph70%29.87 "Hg10 mi
2:53 AM64 °FPassing clouds.No wind65%29.87 "Hg10 mi
1:53 AM64 °FPassing clouds.6 mph65%29.87 "Hg10 mi
12:53 AM67 °FOvercast.7 mph61%29.87 "Hg10 mi
11:53 PM
Mon, Aug 3
66 °FPassing clouds.7 mph63%29.87 "Hg10 mi
10:53 PM65 °FPassing clouds.7 mph66%29.86 "Hg10 mi
Weather by CustomWeather, © 2015

See weather overviewHow to use our weather pages